User: anonymous   Login
Location: Hopkins Observatory
(42.6965°N, 73.1843°W)
Time: 22:58:47
(UTC-04:00)
Language:

RS-15 - Orbit

View from above orbital plane
View from above orbital plane
View from above satellite
View from above satellite

Ground track
Ground track

The orbit data is extracted from the following two-line orbital elements,

1 23439U 94085A   17293.61950021 -.00000025 +00000-0 +49793-3 0  9996
2 23439 064.8207 016.2927 0164923 224.2128 286.1304 11.27566652939559
Epoch (UTC): 20 October 2017 14:52:04
Eccentricity: 0.0164923
inclination: 64.8207°
perigee height: 1884 km
apogee height: 2161 km
right ascension of ascending node: 16.2927°
argument of perigee: 224.2128°
revolutions per day: 11.27566652
mean anomaly at epoch: 286.1304°
orbit number at epoch: 93955

The dashed part of the orbit path shows where the satellite is in the earth's shadow,  

DLR